This is the latest recevied weather packets stored in our database for station/object KC5CAM-13. If no packets are shown the sender has not sent any weather packets the latest 10 day(s).
| Time | Temp. | Humidity | Pressure | Rain* | Wind** | Luminosity | Snow |
|---|---|---|---|---|---|---|---|
| 1777590032 | 17.78° C | 73% | 1014.4 hPa | 0 mm | - | 74 W/m² | - |
| 1777589728 | 17.78° C | 73% | 1014.3 hPa | 0 mm | - | 43 W/m² | - |
| 1777589427 | 17.78° C | 73% | 1014.5 hPa | 0 mm | - | 88 W/m² | - |
| 1777589123 | 17.78° C | 73% | 1014.5 hPa | 0 mm | - | 94 W/m² | - |
| 1777588818 | 17.78° C | 73% | 1014.4 hPa | 0 mm | - | 85 W/m² | - |
| 1777588515 | 17.78° C | 73% | 1014.5 hPa | 0 mm | - | 102 W/m² | - |
| 1777588210 | 17.78° C | 75% | 1014.7 hPa | 0 mm | - | 85 W/m² | - |
| 1777587906 | 17.78° C | 75% | 1014.8 hPa | 0 mm | - | 69 W/m² | - |
| 1777587601 | 17.78° C | 75% | 1014.8 hPa | 0 mm | - | 92 W/m² | - |
| 1777587296 | 17.78° C | 75% | 1014.9 hPa | 0 mm | - | 110 W/m² | - |
| 1777586992 | 17.78° C | 74% | 1014.3 hPa | 0 mm | - | 70 W/m² | - |
| 1777586688 | 18.33° C | 74% | 1014.5 hPa | 0 mm | - | 137 W/m² | - |
| 1777586383 | 18.33° C | 75% | 1014.7 hPa | 0 mm | - | 164 W/m² | - |
| 1777586083 | 17.78° C | 75% | 1014.7 hPa | 0 mm | - | 142 W/m² | - |
| 1777585782 | 17.78° C | 76% | 1014.6 hPa | 0 mm | - | 139 W/m² | - |
| 1777585476 | 17.78° C | 76% | 1014.4 hPa | 0 mm | - | 161 W/m² | - |
| 1777585173 | 17.78° C | 76% | 1014.5 hPa | 0 mm | - | 120 W/m² | - |
| 1777584868 | 17.78° C | 76% | 1014.7 hPa | 0 mm | - | 76 W/m² | - |
| 1777584567 | 17.78° C | 77% | 1014.7 hPa | 0 mm | - | 77 W/m² | - |
| 1777584263 | 17.78° C | 77% | 1015.1 hPa | 0 mm | - | 64 W/m² | - |
| 1777583963 | 17.78° C | 76% | 1014.8 hPa | 0 mm | - | 64 W/m² | - |
| 1777583659 | 17.78° C | 76% | 1015.1 hPa | 0 mm | - | 71 W/m² | - |
| 1777583358 | 17.78° C | 76% | 1015.1 hPa | 0 mm | - | 78 W/m² | - |
| 1777583052 | 17.78° C | 75% | 1014.9 hPa | 0 mm | - | 74 W/m² | - |
| 1777582749 | 17.78° C | 76% | 1014.6 hPa | 0 mm | - | 97 W/m² | - |
* Rain latest hour (hover to see other rain measurements)
** Current wind speed in m/s (hover to see current wind gust speed)